sat.trackr.live / text

‹ back to catalog

STARLINK-2107

NORAD 47723 · 2021-017B

PAYLOAD ACTIVE UNKNOWN

§ Identity

Operator
Country
US
Launch date
2021-03-04
Launch site
AFETR
Launch vehicle
Mass (kg)
RCS (m²)

Purposes: comms

External: N2YO · Heavens-Above · Gunter

§ Orbital elements

Epoch: 2026-09-20T02:39:14.519808Z

Period
93.61 min
Inclination
53.1607°
Eccentricity
0.0003666
Mean motion
15.38217999 rev/d
Perigee alt
448.9 km
Apogee alt
453.9 km
Semi-major
6,829.5 km
B*
7.9320e-4
RAAN
300.3988°
Arg perigee
40.8542°
Mean anomaly
319.2736°
Rev number
30,875

§ Raw data

STARLINK-21071 47723U 21017B   26263.11058472  .00030034  00000+0  79320-3 0  99942 47723  53.1607 300.3988 0003666  40.8542 319.2736 15.38217999308750

JSON: /api/v1/satellites/47723 · /tle

For live sub-satellite position, see the globe view (requires WebGL).

§ Visibility from observer

Set your observer location to see the next 7 days of passes ≥ 10°. The values pass through the URL so the page stays shareable.

No JS? Fill the form by hand. The geolocation button needs JavaScript.